CAPE
1437 1881 2051 1695 1502 2004 2017 1981 2100 1232 114 3 12 9 2 1 0 0 0 0 0 0 0 0 0 0 0 0 0 0 0 0 0 0 0 8 46 49 12 7 20 28 31
1297 1627 1747 2101 1552 1538 1129 1120 35 26 0 3 3 4 4 0 0 0 0 0 0 0 0 0 0 0 0 0 0 0 1 3 2 2 6 3 36 76 36 56 3 2 8
1071 1641 1351 327 3 3 3 1 0 2 2 1 10 4 1 0 0 0 0 0 0 0 0 0 0 0 0 0 0 1 0 0 3 2 3 2 9 14 9 29 4 20 1
1152 655 109 13 3 3 3 6 4 5 10 13 7 3 1 0 0 0 0 0 0 0 0 0 0 0 0 0 0 0 0 0 3 0 0 0 6 22 11 7 2 0 1
301 6 3 3 5 4 4 5 5 9 8 6 6 5 2 1 0 0 0 0 0 0 0 0 0 0 0 0 0 0 0 0 0 0 0 0 4 9 11 9 6 4 0
3 4 2 2 7 6 2 2 7 11 12 5 1 0 0 0 0 0 0 0 0 0 0 0 0 0 0 0 0 0 0 0 1 0 3 9 14 4 7 4 7 9 5
7 9 11 10 11 14 6 3 8 4 1 4 3 2 2 0 0 0 0 0 0 0 0 0 0 0 0 0 0 0 0 0 0 3 8 7 9 14 11 9 6 8 7
6 11 12 7 7 5 5 4 3 4 2 0 0 0 0 0 0 0 0 0 0 0 0 0 0 0 0 0 0 0 0 0 2 0 9 12 11 2 4 7 9 7 6
9 11 3 1 2 6 10 4 7 2 1 1 0 0 0 0 0 0 0 0 0 0 0 0 0 0 0 0 0 0 0 0 0 0 0 0 0 0 0 4 5 5 5
8 8 4 1 1 7 20 5 3 2 1 0 0 0 0 0 0 0 0 0 0 0 0 0 0 0 0 0 0 0 0 0 0 0 9 6 2 2 0 0 6 7 6
7 9 3 2 3 1 2 2 3 3 4 0 0 0 0 0 0 0 0 0 0 0 0 0 0 0 0 0 0 0 0 0 0 0 4 11 12 0 0 6 6 4 5
5 5 3 8 10 0 0 2 2 0 0 0 0 0 0 0 0 0 0 0 0 0 0 0 0 0 0 0 0 0 0 0 0 0 3 8 10 10 4 8 13 29 4
3 2 2 0 1 0 0 2 1 0 0 0 0 0 0 0 0 0 0 0 0 0 0 0 0 0 0 0 0 0 0 0 0 0 6 10 15 17 11 13 7 11 3
2 3 1 1 2 0 0 0 0 0 0 0 0 0 0 0 0 0 0 0 0 0 0 0 0 0 0 0 0 0 0 0 0 0 8 8 18 21 13 17 2 7 9
0 0 0 0 0 0 0 0 0 0 0 0 0 0 0 0 0 0 0 0 0 0 0 0 0 0 0 0 0 0 0 0 0 0 9 12 2 8 5 8 11 10 12
1 1 0 0 0 0 0 0 0 0 0 0 0 0 0 0 0 0 0 0 0 0 0 0 0 0 0 0 0 0 0 0 0 1 13 14 11 13 15 15 15 12 10
0 0 0 0 0 0 0 0 0 0 0 0 0 0 0 0 0 0 0 0 0 0 0 0 0 0 0 0 0 0 0 0 2 5 13 11 22 22 19 10 13 12 8
2 0 0 0 0 0 0 0 0 0 0 0 0 0 0 0 0 0 0 0 0 0 0 0 0 0 0 0 0 0 0 0 3 9 20 22 35 24 19 12 14 14 12
0 0 0 0 0 0 0 0 0 0 0 0 0 0 0 0 0 0 0 0 0 0 0 0 0 0 0 0 0 0 0 0 12 19 32 12 42 34 24 18 21 2 3
0 0 0 0 0 0 0 0 0 0 0 0 0 0 0 0 0 0 0 0 0 0 0 0 0 0 0 0 0 0 0 0 9 27 23 31 44 18 20 23 22 10 8
0 0 0 0 0 0 0 0 0 0 0 0 0 0 0 0 0 0 0 0 0 0 0 0 0 0 0 0 0 0 0 0 5 54 59 43 36 20 20 18 22 11 4
0 0 0 0 0 0 0 0 0 0 0 0 0 0 0 0 0 0 0 0 0 0 0 0 0 0 0 0 0 0 0 0 1 22 64 84 18 15 18 17 19 20 9
0 0 0 0 0 0 0 0 0 0 0 0 0 0 0 0 0 0 0 0 0 0 0 0 0 0 0 0 0 0 0 0 0 9 11 61 7 5 8 13 18 17 19
0 0 0 0 0 0 0 0 0 0 0 0 0 0 0 0 0 0 0 0 0 0 0 0 0 0 0 0 0 0 0 0 0 0 0 9 0 3 1 2 10 17 17
0 0 0 0 0 0 0 0 0 0 0 0 0 0 0 0 0 0 0 0 0 0 0 0 0 0 0 0 0 0 0 0 0 0 0 0 0 0 1 0 3 6 12
2 0 0 0 0 0 0 0 0 0 0 0 0 0 0 0 0 0 0 0 0 0 0 0 0 0 0 0 0 0 0 0 0 0 0 0 0 0 0 0 0 4 8
CIN
-5 -0 -0 -2 -5 -0 -0 -0 -1 -3 -211 -74 -0 -0 -0 -0 -0 -0 -0 -0 -0 -0 -0 -0 -0 -0 -0 -0 -0 -0 -0 -0 -0 -0 -0 -0 -0 -0 -0 -0 -0 -0 -0
-10 -0 -0 -0 -7 -10 -23 -1 -241 -193 -0 -1 -0 -0 -0 -0 -0 -0 -0 -0 -0 -0 -0 -0 -0 -0 -0 -0 -0 -0 -0 -0 -0 -0 -0 -0 -0 -0 -0 -0 -0 -0 -0
-28 -0 -2 -43 -244 -0 -0 -0 -0 -0 -0 -0 -0 -0 -0 -0 -0 -0 -0 -0 -0 -0 -0 -0 -0 -0 -0 -0 -0 -0 -0 -0 -0 -0 -0 -0 -0 -2 -0 -0 -0 -0 -0
-6 -6 -133 -293 -0 -0 -0 -0 -0 -0 -0 -0 -0 -0 -0 -0 -0 -0 -0 -0 -0 -0 -0 -0 -0 -0 -0 -0 -0 -0 -0 -0 -0 -0 -0 -0 -0 -0 -0 -0 -0 -0 -0
-113 -42 -133 -0 -0 -0 -0 -0 -0 -0 -0 -0 -0 -0 -0 -0 -0 -0 -0 -0 -0 -0 -0 -0 -0 -0 -0 -0 -0 -0 -0 -0 -0 -0 -0 -0 -0 -0 -0 -0 -0 -0 -0
-0 -0 -0 -0 -0 -0 -0 -0 -0 -0 -0 -0 -0 -0 -0 -0 -0 -0 -0 -0 -0 -0 -0 -0 -0 -0 -0 -0 -0 -0 -0 -0 -0 -0 -0 -0 -0 -0 -0 -0 -0 -0 -0
-0 -0 -0 -0 -0 -0 -0 -0 -0 -0 -0 -0 -0 -0 -0 -0 -0 -0 -0 -0 -0 -0 -0 -0 -0 -0 -0 -0 -0 -0 -0 -0 -0 -0 -0 -0 -0 -0 -0 -0 -0 -0 -0
-0 -0 -0 -0 -0 -0 -0 -0 -0 -0 -0 -0 -0 -0 -0 -0 -0 -0 -0 -0 -0 -0 -0 -0 -0 -0 -0 -0 -0 -0 -0 -0 -0 -0 -0 -0 -0 -0 -0 -0 -0 -0 -0
-0 -0 -0 -0 -0 -0 -0 -0 -0 -0 -0 -0 -0 -0 -0 -0 -0 -0 -0 -0 -0 -0 -0 -0 -0 -0 -0 -0 -0 -0 -0 -0 -0 -0 -0 -0 -0 -0 -0 -0 -0 -0 -0
-0 -0 -0 -0 -0 -0 -0 -0 -1 -1 -0 -0 -0 -0 -0 -0 -0 -0 -0 -0 -0 -0 -0 -0 -0 -0 -0 -0 -0 -0 -0 -0 -0 -0 -0 -6 -0 -0 -0 -0 -0 -0 -0
-0 -0 -0 -0 -0 -0 -0 -0 -1 -0 -0 -0 -0 -0 -0 -0 -0 -0 -0 -0 -0 -0 -0 -0 -0 -0 -0 -0 -0 -0 -0 -0 -0 -0 -0 -0 -0 -0 -0 -0 -0 -0 -0
-0 -0 -0 -0 -0 -1 -0 -0 -1 -0 -0 -0 -0 -0 -0 -0 -0 -0 -0 -0 -0 -0 -0 -0 -0 -0 -0 -0 -0 -0 -0 -0 -0 -0 -0 -0 -0 -0 -0 -0 -0 -0 -0
-0 -0 -0 -0 -0 -1 -0 -1 -1 -0 -0 -0 -0 -0 -0 -0 -0 -0 -0 -0 -0 -0 -0 -0 -0 -0 -0 -0 -0 -0 -0 -0 -0 -0 -0 -0 -0 -0 -0 -0 -0 -0 -1
-0 -0 -0 -0 -0 -0 -0 -0 -0 -0 -0 -0 -0 -0 -0 -0 -0 -0 -0 -0 -0 -0 -0 -0 -0 -0 -0 -0 -0 -0 -0 -0 -0 -0 -0 -0 -0 -0 -0 -0 -0 -0 -0
-0 -1 -0 -0 -0 -0 -0 -0 -0 -0 -0 -0 -0 -0 -0 -0 -0 -0 -0 -0 -0 -0 -0 -0 -0 -0 -0 -0 -0 -0 -0 -0 -0 -0 -0 -0 -0 -0 -0 -0 -0 -0 -0
-1 -2 -0 -0 -0 -0 -0 -0 -0 -0 -0 -0 -0 -0 -0 -0 -0 -0 -0 -0 -0 -0 -0 -0 -0 -0 -0 -0 -0 -0 -0 -0 -0 -0 -0 -0 -0 -0 -0 -0 -0 -0 -0
-0 -0 -0 -0 -0 -0 -0 -0 -0 -0 -0 -0 -0 -0 -0 -0 -0 -0 -0 -0 -0 -0 -0 -0 -0 -0 -0 -0 -0 -0 -0 -0 -0 -0 -0 -0 -0 -0 -0 -0 -0 -0 -0
-0 -0 -0 -0 -0 -0 -0 -0 -0 -0 -0 -0 -0 -0 -0 -0 -0 -0 -0 -0 -0 -0 -0 -0 -0 -0 -0 -0 -0 -0 -0 -0 -0 -0 -0 -0 -0 -0 -0 -0 -0 -0 -0
-0 -0 -0 -0 -0 -0 -0 -0 -0 -0 -0 -0 -0 -0 -0 -0 -0 -0 -0 -0 -0 -0 -0 -0 -0 -0 -0 -0 -0 -0 -0 -0 -0 -0 -0 -0 -0 -0 -0 -0 -0 -1 -0
-0 -0 -0 -0 -0 -0 -0 -0 -0 -0 -0 -0 -0 -0 -0 -0 -0 -0 -0 -0 -0 -0 -0 -0 -0 -0 -0 -0 -0 -0 -0 -0 -0 -0 -0 -0 -0 -0 -0 -0 -0 -0 -0
-0 -0 -0 -0 -0 -0 -0 -0 -0 -0 -0 -0 -0 -0 -0 -0 -0 -0 -0 -0 -0 -0 -0 -0 -0 -0 -0 -0 -0 -0 -0 -0 -0 -0 -0 -0 -0 -0 -0 -0 -0 -0 -0
-0 -0 -0 -0 -0 -0 -0 -0 -0 -0 -0 -0 -0 -0 -0 -0 -0 -0 -0 -0 -0 -0 -0 -0 -0 -0 -0 -0 -0 -0 -0 -0 -0 -0 -0 -0 -0 -0 -0 -0 -0 -0 -0
-0 -0 -0 -0 -0 -0 -0 -0 -0 -0 -0 -0 -0 -0 -0 -0 -0 -0 -0 -0 -0 -0 -0 -0 -0 -0 -0 -0 -0 -0 -0 -0 -0 -0 -1 -0 -0 -0 -0 -0 -0 -0 -0
-0 -0 -0 -0 -0 -0 -0 -0 -0 -0 -0 -0 -0 -0 -0 -0 -0 -0 -0 -0 -0 -0 -0 -0 -0 -0 -0 -0 -0 -0 -0 -0 -0 -0 -0 -0 -0 -0 -0 -0 -0 -0 -0
-0 -0 -0 -0 -0 -0 -0 -0 -0 -0 -0 -0 -0 -0 -0 -0 -0 -0 -0 -0 -0 -0 -0 -0 -0 -0 -0 -0 -0 -0 -0 -0 -0 -0 -0 -0 -0 -0 -0 -0 -0 -0 -0
-3 -0 -0 -0 -0 -0 -0 -0 -0 -0 -0 -0 -0 -0 -0 -0 -0 -0 -0 -0 -0 -0 -0 -0 -0 -0 -0 -0 -0 -0 -0 -0 -0 -0 -0 -0 -0 -0 -0 -0 -0 -0 -0
Wind_Speed
15 17 16 13 12 13 11 11 14 16 18 15 15 16 16 16 13 13 11 9 13 10 8 6 7 7 7 7 7 7 7 7 9 10 9 11 10 9 10 12 13 12 10
12 17 15 14 12 12 10 14 17 16 16 15 15 16 16 14 13 13 12 10 10 6 11 8 8 6 7 8 7 7 7 8 8 12 10 10 9 8 11 12 11 12 12
14 17 14 13 14 18 15 17 18 19 18 17 17 16 15 14 11 12 11 11 10 8 10 6 9 9 8 8 8 8 8 8 8 9 10 10 10 11 12 11 13 13 12
15 13 16 15 16 16 16 16 18 19 20 17 15 16 15 15 11 10 10 9 10 11 9 9 7 9 9 8 7 8 9 9 9 9 10 11 11 13 12 13 14 13 14
13 14 15 15 14 16 16 18 16 16 15 15 18 15 14 12 10 9 10 8 11 9 7 6 8 8 8 3 6 7 8 9 9 10 10 11 12 13 13 12 12 14 15
16 18 16 18 15 16 17 20 17 17 18 19 18 15 16 9 13 10 7 9 10 6 7 4 6 10 8 3 8 7 4 7 10 8 10 12 13 13 12 12 12 11 9
16 17 17 17 17 16 19 20 19 18 18 18 16 18 17 11 11 14 9 9 9 7 5 6 6 9 11 9 13 5 10 9 3 8 11 12 11 10 10 13 13 11 11
15 15 16 18 17 15 18 19 18 16 17 16 15 14 14 11 12 14 14 10 8 9 8 7 8 9 12 12 10 9 10 8 6 7 7 8 9 10 9 10 10 12 11
17 16 16 19 17 16 17 19 18 18 17 16 15 16 15 11 10 13 9 10 10 10 11 11 8 10 12 15 11 12 11 10 4 11 11 7 5 7 6 7 9 9 9
12 15 15 17 20 16 16 18 16 16 18 15 15 11 13 10 9 7 2 8 9 7 10 9 11 8 11 13 12 12 11 12 12 13 11 4 3 5 8 7 7 8 9
14 13 15 16 18 16 17 16 17 17 17 15 14 12 13 10 10 12 13 8 6 6 6 7 6 4 8 10 12 10 11 12 13 11 10 11 10 10 11 9 7 6 6
14 16 17 16 14 14 18 16 17 16 14 14 13 13 11 11 9 13 15 11 8 7 8 6 3 7 8 8 8 11 14 12 10 10 11 12 10 12 10 10 12 10 5
15 16 16 17 15 16 17 16 13 13 10 11 11 12 11 9 8 10 10 11 12 8 6 3 6 10 10 5 13 13 10 11 11 11 12 11 11 10 12 13 12 13 11
16 16 15 17 18 15 11 10 10 9 10 11 11 11 10 9 8 8 7 6 6 6 8 4 2 4 6 7 9 10 11 11 11 12 12 12 12 11 10 11 12 11 10
15 15 16 15 15 12 10 4 9 10 8 11 11 10 10 9 6 8 10 7 5 4 8 7 9 9 9 10 10 11 11 11 12 12 13 12 12 10 12 11 11 9 10
15 12 11 11 10 11 13 15 24 24 26 25 21 14 12 11 10 11 8 5 5 8 6 8 9 9 10 10 10 11 11 13 13 12 12 11 11 10 11 11 10 10 10
16 13 10 11 11 11 12 13 15 18 26 24 22 20 16 11 9 6 6 9 10 5 10 9 9 10 9 10 10 10 11 12 14 12 12 11 10 10 12 11 11 11 12
18 18 9 10 11 11 12 12 11 12 12 12 11 10 9 7 4 1 5 5 9 11 10 9 10 9 10 10 10 10 11 12 12 12 11 11 10 10 11 11 11 13 12
12 10 11 12 11 11 10 11 11 12 11 12 11 9 5 4 3 5 7 10 9 9 9 9 9 9 10 9 10 10 12 12 11 12 11 10 10 10 10 11 11 13 14
10 11 12 12 10 10 9 11 11 11 12 11 10 9 7 5 9 10 10 9 9 9 9 9 9 9 9 10 10 11 11 12 12 11 10 10 9 10 10 11 12 11 12
10 10 9 9 11 10 10 10 10 10 11 10 10 9 8 10 10 10 9 9 9 9 9 9 9 9 10 10 11 11 12 11 11 10 10 11 10 11 10 11 11 9 10
8 11 10 10 9 12 12 11 11 12 11 11 11 8 5 10 9 9 9 9 9 9 8 9 9 10 10 10 11 12 12 11 12 11 12 11 12 12 10 11 12 10 11
6 9 10 9 10 9 10 12 12 12 12 12 11 9 10 9 9 10 9 9 9 8 9 10 10 10 10 10 11 11 11 11 11 11 12 10 12 12 12 11 11 12 12
4 9 10 10 10 11 12 12 12 12 12 11 10 10 10 9 10 10 9 8 9 9 9 9 10 13 12 11 10 10 10 10 10 12 16 12 12 13 13 13 12 15 12
5 8 10 12 12 12 13 13 12 12 12 11 11 10 10 10 9 9 9 8 8 9 11 10 9 12 14 16 16 17 14 14 13 11 11 14 16 18 14 13 14 12 16
2 9 9 10 11 11 12 12 12 12 12 11 10 10 10 9 9 9 9 8 9 9 10 9 11 15 15 14 16 13 14 15 15 17 10 12 13 13 12 14 19 13 16
Wind_Direction
185 185 184 182 179 156 162 169 125 115 113 122 127 123 119 114 108 99 87 97 93 82 65 45 53 38 12 12 350 4 333 355 316 336 320 337 313 342 340 341 328 330 336
181 177 182 165 115 107 99 111 111 115 110 120 111 112 111 106 105 101 103 87 86 79 66 39 41 38 11 18 345 357 350 330 325 321 337 318 345 333 354 328 352 338 336
174 171 160 126 121 102 111 108 109 111 111 113 119 112 102 92 93 93 84 89 82 62 71 46 39 25 30 14 353 350 353 343 329 328 320 334 335 14 336 350 341 339 336
161 122 129 128 111 115 118 116 117 120 120 118 112 104 99 100 90 95 95 92 91 74 63 55 41 45 28 10 0 0 5 347 339 341 335 344 347 5 345 352 338 340 339
120 125 115 108 116 127 122 110 110 115 110 106 104 95 97 97 100 102 100 112 96 92 84 98 60 36 31 346 347 16 8 360 356 350 342 345 343 347 348 343 335 334 335
117 114 113 119 132 113 107 109 109 111 106 101 99 105 97 98 101 121 107 98 106 104 80 71 91 40 8 289 256 245 276 8 10 355 346 344 338 339 341 336 336 337 328
114 115 118 122 119 127 118 117 118 112 110 108 106 108 107 105 112 102 116 89 83 84 69 35 33 40 7 349 333 326 211 212 262 338 348 338 329 338 330 332 337 325 312
105 107 111 110 111 119 121 112 113 117 110 112 113 122 120 114 106 95 94 106 98 75 63 53 45 27 11 346 318 11 7 27 12 334 330 339 345 350 334 323 316 321 303
117 120 121 114 122 118 116 119 119 114 112 104 108 108 106 110 109 122 133 118 114 108 74 45 40 35 352 341 24 16 12 12 299 249 245 255 282 297 305 324 333 333 321
108 105 118 112 110 116 121 118 118 114 112 110 108 110 105 110 49 39 109 128 130 113 129 106 64 27 325 351 19 17 12 356 329 336 2 67 197 39 35 4 330 324 326
91 98 100 104 108 115 110 107 107 106 106 113 113 111 104 97 55 42 26 129 130 112 98 77 57 310 324 325 340 18 332 318 311 1 5 20 14 7 3 345 337 309 315
98 102 102 105 107 105 104 103 101 106 109 112 117 110 98 85 58 52 48 39 23 85 77 72 79 266 283 308 347 320 308 320 359 7 14 16 11 354 359 329 347 330 315
96 97 99 100 102 102 102 103 105 109 128 128 118 110 110 104 89 68 59 60 56 84 94 144 251 280 271 268 244 278 339 10 359 12 19 21 6 358 348 341 351 345 341
102 107 108 103 101 101 99 107 120 133 129 122 120 117 122 131 133 138 141 137 139 145 198 180 65 318 275 288 21 23 28 9 4 13 22 26 358 349 350 349 344 345 349
99 102 100 99 101 88 58 89 94 61 108 128 125 127 121 96 65 54 55 65 54 25 307 56 48 38 35 30 25 24 28 5 13 14 26 13 358 345 352 355 345 347 356
100 93 93 98 95 93 89 80 61 67 66 65 67 83 79 98 98 77 71 30 319 292 74 53 48 38 36 26 20 23 20 11 16 12 27 7 352 351 347 353 350 356 353
88 80 91 93 99 103 106 101 97 72 70 68 73 72 69 90 74 56 17 324 30 77 61 56 45 39 31 27 20 20 17 20 17 8 27 359 353 350 355 354 351 355 353
105 111 106 108 108 113 111 112 115 110 105 97 66 85 95 104 113 264 305 281 76 64 57 51 50 38 32 27 15 19 26 26 16 9 22 353 352 355 357 357 355 358 354
111 119 123 112 117 122 127 116 110 107 107 109 112 112 136 152 102 14 87 67 67 64 59 54 46 42 34 27 14 19 31 33 17 12 11 346 352 357 2 360 356 4 357
117 105 105 121 129 122 117 111 112 123 121 117 120 121 136 176 87 77 70 68 66 58 56 55 51 43 36 25 19 20 27 28 22 15 353 345 3 356 4 3 358 12 2
116 121 129 143 133 125 126 125 128 124 123 113 89 61 23 94 89 80 75 65 63 57 53 52 48 43 35 29 23 20 21 22 22 359 353 349 8 2 7 8 358 22 10
129 140 138 134 123 137 134 131 128 114 106 111 110 96 349 95 96 90 83 76 72 62 50 48 52 43 37 28 29 19 17 17 13 1 345 352 8 4 10 13 2 9 21
151 146 133 141 129 118 132 124 117 120 122 128 134 119 101 98 94 89 85 80 74 70 61 52 46 44 35 34 30 28 19 15 357 356 333 1 12 2 11 18 6 3 27
149 138 145 122 152 139 126 126 122 129 132 120 112 108 101 95 93 90 87 83 79 70 62 64 58 49 40 32 29 25 22 7 343 353 336 7 23 1 15 17 13 9 26
167 139 142 151 147 130 128 129 139 134 123 120 115 113 108 103 100 96 90 86 82 81 70 58 46 51 48 39 29 18 3 346 344 342 337 19 28 11 14 22 16 16 28
83 150 154 148 130 138 136 139 132 128 123 119 116 114 112 110 102 97 94 91 86 78 75 66 59 47 44 37 23 4 354 349 349 344 341 22 14 31 4 32 19 21 25